星链-5731 (STARLINK-5731 )

导读

STARLINK-5731是美国SpaceX星链星座的V1.5低轨通信卫星,于2023年6月12日发射升空,属于星链全球互联网组网的组成部分。它配备激光星间链路模块,支持卫星间直连通信,降低对地面基站依赖,可提升网络带宽与覆盖范围,助力星链为偏远、海洋区域提供低延迟高速宽带服务,是当前星链星座中占比最高的卫星型号之一。

Basic Information
目录编号:
56924
目录名称:
STARLINK-5731
国际标识:
2023-083BA
轨道中心:
EARTH
卫星名称:
星链-5731
卫星全名:
星链-5731 (STARLINK-5731 )
卫星状态:
在轨 (已飞行1180 天)
发射日期:
2023-06-12 UTC
国别 :
美国 (US)
星等 :
--
Orbit Information
数据来源 国际轨道数据 AOE轨道数据
星历时间 2026-09-04T10:48:56+0800
5小时前
查看轨道信息
2026-09-03T23:00:00+0800
17小时前
查看轨道信息
半长轴 6861.165km 6861.191km
偏心率 0.0001791 0.0001718
轨道倾角 43.003° 43.001°
近地点辐角 273.106° 262.443°
升交点赤经 143.242° 146.023°
平近点角 86.959° 266.980°
近地点 481.799km 481.875km
远地点 484.257km 484.233km
周期 94.266分钟 94.267分钟
每日圈数 15.275871 15.275786
Detailed Information
固有亮度:
5
最大亮度:
2.4
卫星平台:
Starlink v1.5
覆盖范围:
全球
运营商:
太空探索技术公司
运营商所在国:
美国
制造商(研发单位):
太空探索技术公司
制造商所在国:
美国
使用方式:
暂无
Satellite Introduction
星链(Starlink)计划是由太空探索技术公司(SpaceX)提出的一个巨型低轨卫星互联网星座项目,计划在2019年至2024年间在太空搭建由约1.2万颗卫星组成的“星链”网络,其中1584颗将部署在地球上空550千米处的近地轨道,并从2020年开始工作。该卫星仍在工作。
2D Orbit Map
3D Orbit Map
Orbit Altitude Analysis Chart
Orbit Inclination Analysis Chart
Orbit Comprehensive Analysis Chart
View Comprehensive Chart